Voltar ao catálogo

FENGYUN 1C DEB

AtivoSSO
NORAD 31774·DEBRIS·🇨🇳 China

Lançado May 10, 1999 de Taiyuan Satellite Launch Center

Loading…

Próximas Passagens (próximas 24 horas)

TLE

EnvelhecendoSource: Space-Track

Época: Sep 9, 2026, 09:03 UTC

1 31774U 99025CFZ 26252.37710695  .00002475  00000-0  11239-2 0  9998
2 31774  98.7475 299.1779 0059444 151.0685 209.3809 14.21798848668496

Acompanhe FENGYUN 1C DEB em tempo real com AllMySat

Download on the App Store